This demonstration page uses our WeatherBlox Daily Observations layout. Learn more.

39.08367, -84.50855

Hourly Observations for January 6, 2019

Temp ( °F °C ) Dew Point ( °F °C ) Humidity (%) Winds ( mph kmh ) Pressure ( in mb ) Visibility ( mi km ) Precip ( " mm )
12:53 am 00:53 Clear 37 2.8 35 1.7 93 93 S 3 6 30.06 1018 10 16.09344 0 0
1:53 am 01:53 Clear 36 2.2 34 1.1 93 93 Calm 30.06 1018 8 12.874752 0 0
2:06 am 02:06 Mostly Cloudy with Mist and Fog 35 1.7 34 1.1 96 96 Calm 30.09 1019 0.75 1.207008 0 0
2:22 am 02:22 Mostly Clear with Mist and Fog 34 1.1 33 0.6 97 97 Calm 30.09 1019 1.5 2.414016 0 0
2:25 am 02:25 Mostly Clear with Mist and Fog 35 1.7 34 1.1 96 96 Calm 30.09 1019 3 4.828032 0 0
2:40 am 02:40 Clear with Mist and Fog 34 1.1 34 1.1 100 100 Calm 30.09 1019 1.5 2.414016 0 0
2:53 am 02:53 Clear with Mist and Fog 35 1.7 33 0.6 93 93 Calm 30.09 1019 1 1.609344 0 0
3:17 am 03:17 Clear with Mist and Fog 34 1.1 33 0.6 97 97 SW 3 6 30.12 1020 3 4.828032 0 0
3:53 am 03:53 Clear with Mist and Fog 35 1.7 34 1.1 96 96 Calm 30.09 1019 4 6.437376 0 0
3:55 am 03:55 Mostly Cloudy with Mist and Fog 34 1.1 33 0.6 97 97 Calm 30.12 1020 1 1.609344 0 0
4:02 am 04:02 Mostly Cloudy with Fog 32 0 31 -0.6 96 96 Calm 30.15 1021 0.5 0.804672 0 0
4:09 am 04:09 Clear with Fog 32 0 31 -0.6 96 96 Calm 30.15 1021 0.25 0.402336 0 0
4:28 am 04:28 Clear with Mist and Fog 33 0.6 32 0 96 96 Calm 30.15 1021 0.75 1.207008 0 0
4:36 am 04:36 Mostly Cloudy with Fog 33 0.6 32 0 96 96 Calm 30.15 1021 0.25 0.402336 0 0
4:46 am 04:46 Mostly Cloudy with Fog 32 0 31 -0.6 96 96 Calm 30.15 1021 0.5 0.804672 0 0
4:53 am 04:53 Mostly Cloudy with Fog 33 0.6 32 0 96 96 Calm 30.12 1020 0.5 0.804672 0 0
5:07 am 05:07 Mostly Cloudy with Fog 32 0 31 -0.6 96 96 Calm 30.15 1021 0.25 0.402336 0 0
5:53 am 05:53 Mostly Cloudy with Freezing Fog 31 -0.6 30 -1.1 96 96 Calm 30.15 1021 0.25 0.402336 0 0
6:28 am 06:28 Mostly Cloudy with Fog 32 0 32 0 100 100 SW 3 6 30.18 1022 0.25 0.402336 0 0
6:53 am 06:53 Mostly Cloudy with Freezing Fog 31 -0.6 31 -0.6 100 100 Calm 30.18 1022 0.25 0.402336 0 0
7:53 am 07:53 Mostly Cloudy with Fog 32 0 31 -0.6 96 96 Calm 30.18 1022 0.25 0.402336 0 0
8:53 am 08:53 Mostly Cloudy with Freezing Fog 31 -0.6 30 -1.1 96 96 Calm 30.21 1023 0 0 0 0
9:37 am 09:37 Mostly Cloudy with Fog 32 0 31 -0.6 96 96 Calm 30.27 1025 0.25 0.402336 0 0
9:47 am 09:47 Mostly Cloudy with Mist and Fog 32 0 32 0 100 100 Calm 30.3 1026 1 1.609344 0 0
9:48 am 09:48 Mostly Cloudy with Mist and Fog 33 0.6 33 0.6 100 100 Calm 30.27 1025 1 1.609344 0 0
9:56 am 09:56 Mostly Cloudy with Fog 33 0.6 33 0.6 100 100 Calm 30.3 1026 0.5 0.804672 0 0
10:00 am 10:00 Mostly Cloudy with Fog 33 0.6 33 0.6 100 100 Calm 30.3 1026 0.25 0.402336 0 0
10:07 am 10:07 Mostly Cloudy with Mist and Fog 34 1.1 34 1.1 100 100 Calm 30.3 1026 0.75 1.207008 0 0
10:14 am 10:14 Cloudy with Mist and Fog 35 1.7 34 1.1 96 96 Calm 30.3 1026 1.5 2.414016 0 0
10:24 am 10:24 Partly Cloudy with Mist and Fog 36 2.2 35 1.7 97 97 Calm 30.3 1026 3 4.828032 0 0
10:53 am 10:53 Sunny 40 4.4 38 3.3 93 93 Calm 30.27 1025 8 12.874752 0 0
11:53 am 11:53 Sunny 48 8.9 39 3.9 71 71 NE 8 13 30.24 1024 10 16.09344 0 0
12:53 pm 12:53 Sunny 50 10 40 4.4 68 68 NNE 5 7 30.21 1023 10 16.09344 0 0
1:53 pm 13:53 Sunny 52 11.1 39 3.9 61 61 ENE 8 13 30.18 1022 10 16.09344 0 0
2:53 pm 14:53 Sunny 52 11.1 39 3.9 61 61 ENE 8 13 30.18 1022 10 16.09344 0 0
3:53 pm 15:53 Sunny 52 11.1 39 3.9 61 61 NE 8 13 30.21 1023 10 16.09344 0 0
4:53 pm 16:53 Sunny 48 8.9 39 3.9 71 71 ENE 7 11 30.21 1023 10 16.09344 0 0
5:53 pm 17:53 Clear 46 7.8 38 3.3 73 73 NE 7 11 30.24 1024 10 16.09344 0 0
6:53 pm 18:53 Clear 45 7.2 38 3.3 77 77 ENE 7 11 30.24 1024 10 16.09344 0 0
7:53 pm 19:53 Clear 44 6.7 37 2.8 76 76 NE 8 13 30.24 1024 10 16.09344 0 0
8:53 pm 20:53 Clear 44 6.7 37 2.8 76 76 NE 5 7 30.27 1025 10 16.09344 0 0
9:53 pm 21:53 Clear 44 6.7 37 2.8 76 76 NNE 3 6 30.27 1025 10 16.09344 0 0
10:53 pm 22:53 Clear 43 6.1 37 2.8 80 80 NE 8 13 30.24 1024 10 16.09344 0 0
11:53 pm 23:53 Clear 43 6.1 36 2.2 76 76 NNE 5 7 30.24 1024 10 16.09344 0 0

Powered by AerisWeather